Wind_Speed
13 14 14 15 15 15 16 17 17 18 18 19 19 20 20 21 21 21 22 22 23 23 24 25 25 27 28 28 29 30 31 32 32 32 32 33 33 33 32 32 31 31 32 32 32 33 33 33 33 33 34 34 34 34 34 34 34 35 34 33 32 31 30 29 27 27 29 28 26 25 25 24 23 23 23 23 23 24 24 26 28 29 31 31 30
14 14 15 16 16 17 17 18 19 19 20 21 21 22 23 23 23 24 24 25 25 26 27 27 28 29 30 31 32 32 33 34 34 34 34 34 34 34 33 33 33 32 32 32 33 33 33 33 34 34 35 35 35 35 35 36 36 36 36 36 36 34 33 32 30 29 30 31 30 28 27 27 26 25 24 24 24 24 25 25 27 28 29 31 31
14 15 15 16 16 17 18 18 19 20 21 22 22 23 24 24 25 26 26 27 27 28 29 30 30 31 32 32 33 34 34 34 35 35 34 34 34 34 33 33 33 33 33 33 33 33 33 33 34 35 35 36 36 37 37 37 38 38 38 38 38 38 37 35 33 31 31 32 32 31 30 29 29 28 27 26 25 25 25 25 26 27 28 30 31
15 15 15 16 16 17 18 19 20 21 21 22 23 24 24 25 26 27 27 28 29 29 30 30 31 32 33 33 34 34 34 35 35 35 34 34 34 33 33 33 33 33 33 33 34 34 34 34 35 36 37 37 38 39 39 40 40 40 40 40 40 40 40 39 37 35 34 34 34 33 33 31 30 30 30 28 27 27 27 26 26 26 27 29 31
15 15 15 16 16 17 18 19 20 21 22 23 23 24 25 26 27 28 28 29 30 30 31 31 32 33 34 34 34 34 34 34 34 34 34 34 33 34 34 34 34 34 34 34 35 36 36 37 37 38 39 39 40 41 41 42 42 42 42 42 42 42 42 42 41 39 37 36 35 35 35 34 32 32 32 32 30 28 28 28 28 26 26 27 29
15 15 15 16 16 17 18 19 20 21 22 23 24 25 27 27 28 29 30 31 31 32 32 32 33 33 33 34 34 34 34 34 34 34 34 34 34 34 34 34 35 35 36 37 37 38 38 39 39 40 41 41 42 42 43 43 43 44 43 43 43 43 43 43 43 42 40 38 37 36 36 35 35 34 33 33 33 31 29 29 29 28 27 27 27
16 16 17 17 18 18 19 20 21 22 23 24 25 26 27 27 28 29 29 30 30 31 32 32 32 33 33 33 33 33 34 34 34 34 34 34 34 35 35 35 36 37 37 38 38 38 39 39 40 41 42 42 43 44 44 44 44 44 44 44 44 44 44 43 43 43 42 41 39 39 38 37 36 36 35 34 34 34 33 32 31 30 29 29 28
16 16 16 17 17 18 19 19 20 21 22 23 23 24 25 26 26 27 28 29 30 30 31 31 32 32 32 32 32 32 33 33 34 34 34 35 35 35 36 36 37 37 37 37 37 38 38 38 39 40 41 42 43 44 44 45 45 45 45 45 45 45 44 44 43 43 43 42 41 41 41 39 38 37 37 36 35 36 36 35 33 31 31 31 30
15 15 15 15 15 16 17 18 19 20 21 22 23 24 25 25 26 27 27 28 29 30 30 31 31 32 32 32 32 32 32 33 34 34 35 36 37 37 36 36 37 37 37 37 37 37 37 37 37 38 39 40 41 43 44 44 45 45 45 45 45 45 44 44 44 43 43 43 42 42 42 41 40 38 38 38 37 37 38 37 36 34 33 32 33
15 16 16 15 15 16 17 18 19 20 21 23 23 24 25 25 26 26 27 28 28 29 30 30 31 31 31 31 31 32 32 33 34 35 36 37 38 38 37 37 37 37 38 37 37 37 37 38 38 38 38 39 40 40 42 43 43 43 44 44 44 45 44 44 44 43 43 43 42 42 42 42 41 40 39 39 39 39 39 39 39 37 36 35 35
15 16 16 16 16 16 17 18 19 20 21 22 23 24 24 25 25 26 27 27 28 29 29 30 30 30 30 31 31 32 33 34 35 36 37 37 38 38 38 37 37 38 38 39 38 39 39 39 39 40 40 40 41 41 41 42 42 43 43 44 44 44 44 44 43 43 43 43 42 42 42 42 42 42 41 40 40 40 40 41 40 40 40 39 38
16 17 17 16 16 16 18 19 20 20 22 23 24 24 25 25 26 26 27 28 28 29 29 29 30 30 31 32 33 34 35 36 36 37 37 37 37 38 38 38 38 39 40 40 40 40 40 40 41 41 41 41 42 42 42 42 43 43 44 44 44 44 44 44 44 44 44 43 43 42 42 42 42 42 42 42 42 41 41 42 42 42 44 42 40
17 18 18 17 17 18 19 20 21 22 23 24 24 25 26 26 27 27 27 28 28 29 29 30 30 31 32 33 35 36 36 37 37 37 38 38 38 38 39 39 39 40 40 41 41 41 41 41 41 42 42 42 42 43 43 43 43 44 44 44 44 44 45 44 44 44 44 44 43 43 43 43 43 43 43 44 44 43 42 42 43 44 45 44 42
17 18 19 19 19 20 20 21 22 24 25 25 25 26 26 27 27 28 28 28 29 29 30 31 32 33 34 36 36 37 38 38 38 39 39 39 39 40 40 40 40 40 41 41 42 42 42 42 42 43 43 44 44 44 45 45 45 45 45 45 45 45 45 45 45 45 45 45 44 43 43 44 44 43 44 44 45 44 43 42 43 44 45 45 44
17 19 20 21 21 22 21 22 24 25 26 26 26 27 27 28 28 28 28 29 30 30 31 32 34 35 36 37 38 38 39 39 40 40 40 40 41 41 42 42 42 42 42 42 44 44 44 44 44 45 45 45 45 46 46 47 46 46 46 46 46 46 45 46 46 46 45 45 45 44 44 44 44 44 44 45 45 45 44 43 43 44 46 46 46
19 21 21 22 23 23 23 24 25 26 26 27 27 28 28 28 29 29 29 30 30 31 32 34 36 37 38 39 39 39 40 40 41 41 41 41 42 42 43 44 44 44 44 45 45 46 46 46 46 46 46 46 46 47 47 47 47 46 46 46 47 46 46 46 47 47 46 46 46 46 45 45 45 45 44 45 45 45 45 44 44 45 46 46 45
22 23 24 24 24 24 24 25 26 26 27 27 27 28 28 29 29 30 30 31 32 33 35 37 38 39 40 41 41 41 41 42 42 43 43 43 43 44 45 46 46 46 46 46 46 46 46 46 46 46 46 47 47 47 47 46 46 46 46 47 47 47 47 47 47 47 48 47 47 47 46 46 46 46 45 45 46 46 46 45 45 46 46 45 45
23 24 24 25 25 25 25 26 26 26 27 27 27 28 28 29 30 30 31 32 34 36 38 39 40 41 41 41 41 42 42 43 44 44 44 45 45 46 47 47 47 47 47 47 47 47 47 47 48 48 48 47 47 47 46 46 47 47 47 47 47 47 47 48 48 48 48 48 48 47 47 46 46 46 46 46 46 47 47 46 47 48 47 46 45
24 24 24 24 25 25 25 26 26 26 27 27 28 28 29 30 31 31 33 34 36 38 40 40 40 41 41 41 42 42 43 44 45 45 46 46 47 47 48 49 49 48 48 48 48 48 48 49 50 50 49 48 48 48 48 48 48 48 48 48 48 48 48 49 49 49 49 48 48 48 48 47 47 47 47 46 47 47 47 47 48 49 48 47 46
25 24 24 24 25 25 25 26 26 27 27 28 29 29 30 31 32 33 35 37 39 39 40 40 40 41 41 42 42 43 44 45 46 46 47 47 48 48 49 49 49 49 48 48 48 48 48 49 49 49 49 48 48 47 47 47 47 47 47 48 48 49 49 50 50 50 49 49 49 49 49 48 48 48 48 47 47 48 48 48 48 49 49 48 47
25 25 25 25 25 25 26 27 28 28 29 29 30 30 31 32 34 36 38 39 39 39 39 40 40 41 42 43 43 44 45 45 46 47 47 47 47 47 47 47 48 48 48 48 48 48 47 47 48 48 47 46 46 45 45 44 44 44 44 44 45 46 48 49 49 50 49 49 49 49 49 48 48 48 48 48 48 49 49 50 49 49 49 49 49
26 26 26 26 26 27 27 29 29 30 30 30 31 32 33 35 37 38 38 38 39 39 39 40 40 42 42 43 44 44 45 45 46 47 47 46 46 46 46 47 48 48 48 47 47 46 45 45 45 45 44 43 43 43 42 42 42 42 42 42 43 43 44 45 46 47 47 48 48 48 48 48 48 48 49 49 49 50 50 50 50 50 50 49 49
27 27 27 27 28 28 29 30 30 31 31 32 33 34 36 38 39 39 38 38 38 39 40 40 40 41 42 43 44 45 45 46 45 46 46 46 46 46 47 47 47 47 47 46 45 45 44 44 44 44 43 42 41 41 41 41 41 41 42 42 43 43 43 42 43 43 44 45 46 46 46 47 47 47 48 48 49 50 51 51 51 51 51 50 50
27 28 29 29 30 30 31 31 31 31 32 33 35 37 38 39 38 38 38 38 38 39 40 40 40 41 41 43 43 44 45 45 46 46 47 47 47 47 47 47 46 46 46 45 45 44 44 43 43 43 42 42 41 41 41 41 40 40 41 41 42 42 41 41 41 41 42 42 43 43 44 45 45 45 46 47 48 49 50 51 51 52 51 51 50
27 28 29 29 30 31 31 32 32 33 34 36 37 38 38 37 37 37 37 37 38 39 39 40 40 41 42 42 42 43 43 45 46 47 47 48 48 48 47 47 46 45 44 44 44 44 44 44 44 43 42 42 41 41 41 41 41 41 40 40 40 40 40 40 40 40 40 39 39 39 40 42 42 42 43 44 45 46 47 48 49 50 50 51 51
28 28 29 30 30 31 31 32 33 35 37 38 38 37 36 36 36 36 37 38 38 39 39 40 41 41 41 41 42 42 43 44 46 47 47 48 48 48 48 46 45 44 43 42 43 43 42 42 42 42 41 42 42 41 40 40 41 41 40 38 38 38 38 39 39 39 38 37 36 36 38 39 40 41 41 42 43 44 45 45 46 46 47 48 49
29 29 29 30 30 31 32 33 35 37 38 37 37 36 36 36 36 37 38 38 39 39 40 41 41 41 41 41 41 42 42 43 45 46 47 48 49 48 47 45 44 42 41 40 40 38 37 37 38 38 39 39 40 41 40 40 39 38 36 36 35 35 36 38 39 39 38 36 35 35 37 39 40 40 40 41 42 43 44 45 44 44 44 45 45
29 29 30 30 30 31 33 34 35 36 36 35 34 34 35 36 37 37 38 38 39 40 41 41 41 41 41 42 42 42 42 42 45 47 48 49 48 46 44 41 40 38 37 37 36 34 33 34 35 36 36 36 36 37 37 36 35 33 32 32 33 33 34 36 37 37 36 35 34 34 35 37 38 39 39 41 42 43 45 45 45 44 44 44 44
30 30 31 30 32 33 34 34 34 33 33 33 33 34 35 36 36 37 38 39 40 41 41 41 42 42 43 43 43 43 43 45 47 49 49 48 44 41 39 37 35 34 33 33 32 32 32 33 33 34 34 33 33 32 32 31 29 29 29 30 30 30 31 33 34 34 34 34 34 34 35 36 37 37 38 39 40 41 43 45 45 45 45 45 44
31 31 31 32 33 34 34 33 32 31 31 32 33 35 35 36 36 37 38 39 40 40 41 41 42 43 43 43 43 45 46 48 49 50 48 42 38 36 35 33 32 31 31 30 30 30 31 30 30 31 30 29 28 28 28 27 27 27 28 28 29 29 29 30 31 31 32 33 34 34 35 36 36 37 37 38 38 40 41 43 44 45 45 45 44
31 32 32 33 33 33 32 31 30 31 31 33 34 34 35 35 36 38 39 39 39 40 40 41 42 42 42 42 43 45 48 51 51 48 42 37 33 32 32 31 31 32 32 30 29 29 29 27 26 25 25 24 24 24 24 24 24 25 25 26 27 27 27 27 27 27 28 29 30 32 33 34 34 35 36 37 37 38 40 41 43 44 44 43 43
31 32 33 32 31 30 29 29 30 30 32 33 33 33 33 35 36 37 38 38 38 39 40 41 41 40 41 41 43 46 49 50 47 42 37 34 33 31 29 29 30 31 32 31 28 27 26 24 21 20 20 20 20 21 21 21 21 22 22 23 23 23 24 24 25 25 26 27 28 28 29 30 31 32 34 35 36 37 38 39 41 43 43 42 42
31 31 31 29 28 28 28 28 29 31 31 32 32 32 34 35 35 36 36 37 38 39 39 39 39 39 40 42 45 48 48 44 39 35 34 34 33 30 27 28 29 30 32 31 28 25 24 21 18 17 17 17 18 18 19 19 19 19 19 19 20 21 21 22 23 23 24 25 26 26 27 28 29 30 31 32 33 34 35 37 39 41 42 41 41
29 28 27 27 26 26 27 28 30 30 30 31 32 33 34 35 35 35 35 36 37 37 37 38 38 39 40 43 45 45 41 35 33 33 33 32 30 27 26 27 28 30 32 30 26 24 22 20 17 17 17 17 18 18 18 18 17 17 17 17 18 19 20 21 22 22 23 23 24 24 25 26 27 28 29 30 31 32 33 34 36 38 40 40 41
26 25 25 25 25 26 27 29 29 29 30 31 32 34 34 34 34 35 36 36 36 36 36 36 37 39 42 44 42 37 33 31 33 34 34 31 28 25 25 26 27 30 32 29 24 21 21 19 17 17 17 17 17 17 16 16 15 15 16 16 17 19 20 21 21 22 22 22 22 23 24 24 25 26 27 29 29 30 31 33 35 36 37 39 39
24 23 24 24 25 26 28 28 28 28 29 31 33 34 33 33 34 35 36 36 36 35 35 36 37 40 43 42 36 31 30 32 33 34 33 31 28 26 25 25 27 29 30 26 21 19 19 18 17 17 17 16 16 15 15 15 15 15 16 16 17 18 19 19 20 21 22 22 21 22 24 24 24 24 24 25 26 27 29 30 32 33 34 36 36
23 23 23 24 25 27 27 27 27 28 30 32 33 32 32 33 34 35 35 35 34 34 35 36 38 41 41 36 31 30 32 34 34 34 32 31 30 29 28 28 29 29 26 21 17 17 18 17 17 16 16 15 15 14 14 14 14 15 15 15 16 16 17 18 19 19 20 20 21 21 22 22 22 23 23 23 23 25 26 27 29 30 32 33 34
22 23 23 24 26 26 26 26 27 29 31 32 31 31 32 33 34 34 34 33 33 34 35 37 39 40 36 30 28 31 32 32 31 31 31 32 33 33 33 32 29 25 19 16 15 16 16 16 16 16 15 15 14 14 13 13 13 14 14 14 15 16 17 17 17 17 18 18 19 20 20 20 19 20 20 21 21 21 22 25 27 28 29 30 32
21 22 23 25 25 25 25 26 28 30 31 30 30 31 32 33 33 33 32 31 32 34 36 38 40 38 33 28 28 30 30 27 26 27 30 34 35 33 30 27 23 17 14 13 13 14 15 15 15 14 14 14 13 13 13 12 12 13 14 14 14 15 15 16 16 16 16 16 17 19 19 18 17 17 18 19 18 18 19 21 24 26 27 29 30
20 22 24 24 24 24 25 27 29 30 29 29 30 31 32 32 31 30 29 30 32 34 37 39 39 35 29 27 28 28 26 25 26 29 32 33 30 27 25 23 19 15 14 13 13 13 14 14 13 13 13 13 12 12 12 12 12 13 13 13 13 13 13 14 15 16 16 16 16 17 17 17 16 15 16 17 16 15 15 18 20 21 24 26 28
21 23 23 23 23 24 26 28 29 28 28 29 30 31 31 30 29 28 28 30 32 34 37 39 38 32 27 27 28 27 26 27 29 32 33 30 27 25 24 22 18 16 15 13 13 12 13 13 12 12 11 11 11 11 11 11 12 13 13 12 12 12 13 14 15 16 17 17 16 16 16 15 15 15 15 15 14 13 13 14 15 16 19 22 24
22 22 22 22 23 25 27 27 27 27 28 29 30 30 29 28 27 27 28 30 33 34 37 38 35 29 26 26 27 26 26 28 31 33 31 27 25 25 23 20 18 16 15 14 12 12 11 11 11 11 11 10 11 11 11 11 12 13 13 12 12 13 13 13 13 14 16 17 16 15 15 14 13 14 14 13 12 12 11 12 12 13 15 17 20
22 21 21 22 24 26 26 26 26 27 28 29 29 28 27 26 25 26 27 30 33 35 37 37 33 27 25 26 26 24 25 28 30 31 28 24 23 23 22 20 19 18 16 14 13 11 10 10 10 11 12 11 11 11 11 11 12 14 14 15 15 15 13 11 12 15 19 20 19 16 14 13 12 12 12 12 10 9 9 10 11 12 14 16 18
20 20 20 23 25 26 25 25 25 27 28 27 27 26 25 24 24 25 27 30 33 36 38 36 30 23 24 26 24 22 24 27 29 29 26 22 20 21 21 19 19 18 16 15 13 11 10 11 11 12 13 12 11 11 11 11 13 15 16 17 18 17 14 13 16 20 22 22 20 16 14 13 13 12 11 10 10 9 8 10 11 13 14 15 15
19 19 21 23 24 24 23 24 25 26 26 26 25 24 23 23 24 25 26 30 33 35 37 36 28 22 22 25 23 21 23 26 28 29 27 20 17 19 20 19 19 18 15 14 13 12 11 12 12 12 13 13 13 13 13 12 14 16 16 17 19 18 17 17 20 22 22 21 19 16 13 12 12 11 11 10 9 9 9 9 10 11 12 12 13
18 20 22 23 23 22 23 24 25 26 25 24 23 23 22 22 23 24 26 29 32 33 35 35 29 22 22 23 22 21 23 24 27 30 28 20 16 17 17 16 16 16 14 13 13 13 12 11 11 13 13 13 13 13 13 13 15 16 17 18 20 19 18 18 19 21 23 22 18 15 12 9 8 8 8 9 9 10 10 10 10 10 11 12 13
19 21 22 21 21 22 23 24 24 24 23 22 21 21 21 22 22 23 25 28 31 32 33 33 29 24 22 21 20 20 22 23 25 29 27 20 15 15 15 13 13 13 13 13 13 13 11 10 11 13 13 13 13 14 14 14 15 16 18 21 22 21 19 17 16 18 23 23 20 16 12 9 6 5 6 7 8 9 10 10 11 12 12 12 13
20 21 21 20 20 21 22 23 24 23 22 21 20 20 20 21 21 22 24 27 30 31 32 32 30 26 22 20 18 19 22 23 24 27 26 20 14 14 16 15 13 12 12 13 12 11 10 10 11 12 14 15 16 16 16 16 17 18 21 24 24 22 20 17 16 17 21 22 22 19 14 8 5 5 5 6 6 8 10 11 11 12 12 13 13
20 20 19 19 20 21 22 23 23 22 21 20 19 19 20 20 21 22 24 26 28 30 30 31 31 29 26 23 21 21 22 22 23 25 26 21 15 13 15 15 14 12 11 11 11 11 11 11 11 12 14 15 16 16 17 17 16 18 22 25 25 24 21 17 15 17 19 20 22 22 18 10 5 5 4 4 5 6 8 11 11 11 11 12 14
19 19 18 19 20 21 22 22 23 22 20 19 18 19 19 20 20 21 23 25 27 29 29 30 31 31 30 27 23 22 21 20 21 24 25 23 19 16 15 14 14 12 11 10 10 10 10 9 10 13 14 14 14 16 18 17 14 15 20 23 24 24 22 19 16 17 19 20 22 24 21 14 8 6 5 2 2 4 7 9 10 10 11 12 13
18 17 17 18 19 20 21 22 22 21 19 18 18 18 18 19 19 20 22 24 26 27 28 28 30 30 30 28 26 24 21 20 21 23 23 23 22 20 18 16 14 14 12 11 10 10 10 9 11 13 15 14 14 16 17 16 15 16 19 21 21 23 23 21 18 18 20 22 24 27 26 21 15 9 5 3 1 2 5 7 9 10 11 13 13
Wind_Direction
277 276 276 275 275 275 276 276 277 277 277 277 277 277 278 278 279 279 280 281 282 283 284 284 285 285 285 286 287 287 288 288 289 290 290 290 290 291 292 293 294 293 293 292 291 290 289 289 288 287 287 286 286 286 286 286 286 287 286 286 284 283 282 281 280 278 278 277 274 273 274 274 272 271 271 271 269 267 265 263 262 260 257 256 256
275 274 274 274 274 274 274 275 276 276 276 276 276 277 277 277 278 279 280 281 282 282 283 283 283 283 284 284 285 286 287 287 288 288 288 288 289 289 291 292 292 292 291 290 289 288 287 286 286 285 284 284 284 284 283 283 283 283 283 284 283 282 281 279 278 276 274 274 273 271 270 270 270 269 268 268 267 265 264 263 262 260 258 256 255
278 277 277 276 276 277 276 277 277 277 278 278 279 279 280 280 281 282 283 283 284 284 284 284 284 284 285 285 286 286 286 286 286 287 287 288 289 290 291 291 291 291 290 288 287 286 285 284 283 282 282 281 281 281 280 280 279 279 279 279 280 280 280 278 276 274 271 270 271 271 268 267 268 268 267 266 265 265 263 261 261 260 259 258 257
274 274 275 276 277 278 278 280 280 281 282 283 283 284 285 285 285 285 285 285 285 285 285 285 285 285 285 285 285 286 286 287 288 288 289 290 291 291 291 291 290 289 288 286 285 284 283 282 281 279 279 279 278 278 277 277 276 276 276 276 276 276 276 276 275 274 271 270 269 268 267 266 265 265 266 265 264 264 263 262 261 260 259 258 257
272 273 274 277 279 281 282 283 285 286 286 287 288 288 288 288 287 286 286 285 285 285 285 285 285 285 285 286 286 287 288 289 290 291 292 292 292 292 291 290 289 287 286 285 284 283 282 281 279 278 277 276 276 275 275 275 275 274 274 274 274 274 273 274 274 273 272 271 269 267 267 266 264 263 263 264 264 263 263 263 262 260 258 257 255
271 274 276 279 281 282 284 284 286 287 287 288 288 288 288 287 287 286 286 286 286 286 286 287 287 287 288 289 290 291 291 292 292 292 292 292 291 291 290 288 287 286 285 284 283 282 281 280 279 278 276 275 274 274 273 273 273 273 273 273 272 272 272 272 272 272 271 271 270 269 267 266 265 263 260 261 263 263 261 261 261 260 258 256 255
274 276 277 279 280 282 283 284 285 286 286 287 287 286 286 286 286 286 287 287 288 289 289 289 290 290 291 291 292 293 293 293 292 292 291 290 289 289 287 286 285 284 283 283 282 281 280 279 278 277 276 274 273 273 273 273 273 272 272 272 271 271 271 271 271 271 270 269 269 269 267 265 264 263 261 259 259 261 260 259 259 259 258 257 255
275 276 278 280 282 283 284 286 287 288 289 288 288 288 288 288 289 290 291 291 291 292 292 292 292 293 293 293 292 291 291 291 290 290 290 288 287 286 286 285 285 284 284 283 283 282 281 280 278 276 275 274 274 273 273 273 273 272 272 272 271 271 271 270 270 270 269 269 268 267 267 266 264 262 261 260 258 258 258 258 257 257 257 256 256
279 281 283 285 289 290 291 293 294 295 295 293 293 293 293 293 294 294 294 293 293 293 293 293 293 292 292 292 290 289 289 288 288 288 288 288 287 287 287 287 287 287 286 285 284 284 283 281 280 278 277 276 275 274 274 274 273 273 273 273 272 271 270 270 269 268 268 268 267 266 266 266 265 263 261 260 258 257 257 257 257 256 254 254 255
285 287 290 292 295 296 296 297 297 297 297 295 295 296 296 296 296 295 294 293 292 292 292 292 291 290 290 289 289 288 288 288 288 289 289 289 289 289 289 288 288 287 286 286 284 283 282 281 280 278 277 276 275 274 274 274 273 273 273 273 272 271 271 270 270 269 268 267 267 266 266 266 266 264 262 259 258 256 256 256 255 255 254 253 253
289 292 296 300 302 302 299 299 299 299 298 298 299 300 299 298 297 295 294 293 293 292 292 291 291 290 290 290 290 291 291 291 292 291 291 291 291 290 290 289 288 287 286 285 283 282 281 280 279 277 276 275 274 273 273 272 272 272 272 272 272 272 271 271 270 270 269 268 267 266 266 266 265 265 264 261 259 257 256 256 255 255 254 253 252
295 298 302 306 308 307 305 304 303 302 302 302 302 302 301 299 297 296 295 295 295 294 293 292 292 292 293 294 294 295 295 294 294 293 292 291 290 290 289 288 287 286 285 284 283 282 281 280 279 278 277 276 275 274 273 272 272 272 271 271 271 271 271 270 270 269 268 268 267 266 265 265 265 265 264 263 261 258 256 255 255 255 255 254 252
301 304 308 312 312 311 309 308 307 307 306 306 305 304 302 300 299 298 298 297 296 295 294 293 294 295 296 297 297 297 296 295 294 293 292 291 290 289 288 288 287 286 286 285 284 283 282 281 280 279 278 277 276 275 274 273 272 272 271 271 271 271 270 269 269 268 267 267 266 265 265 264 263 263 263 262 261 260 257 255 254 255 256 257 256
307 311 315 316 316 314 312 309 310 311 310 309 307 305 303 301 301 300 299 298 296 295 295 296 297 298 298 299 298 298 297 295 294 293 293 292 292 291 290 289 288 287 287 286 285 284 283 282 281 280 279 278 277 275 274 273 272 271 271 270 270 269 269 268 268 267 266 266 265 264 264 263 262 261 261 261 261 261 259 257 254 254 254 256 256
312 318 320 319 317 317 314 313 312 311 310 309 307 305 304 303 302 301 299 297 296 296 297 298 299 300 300 299 299 298 297 295 295 295 295 295 294 293 292 291 290 289 288 286 285 285 284 283 282 280 279 277 276 275 274 273 272 271 270 269 268 267 267 267 266 266 265 264 264 263 262 262 261 261 260 260 260 260 259 258 255 253 253 253 254
315 320 321 319 319 320 318 315 313 312 310 309 307 305 304 303 301 299 298 297 298 298 300 301 301 301 301 300 299 298 297 297 297 296 296 296 295 294 293 292 291 291 290 288 287 286 285 284 282 281 279 277 276 275 274 274 273 272 271 269 268 267 266 265 265 264 263 263 262 261 261 260 260 260 259 259 259 258 258 257 256 255 254 253 253
319 322 321 320 321 321 319 316 314 312 310 308 306 304 303 301 300 299 299 300 301 301 302 303 303 302 301 301 300 300 299 299 298 298 298 297 296 295 294 294 293 292 291 290 289 287 286 285 283 281 280 278 277 276 276 275 274 272 270 269 268 267 266 265 264 263 262 261 261 260 259 259 259 258 258 257 257 257 256 256 256 255 254 253 253
323 323 322 322 322 320 319 317 314 312 309 306 304 303 302 301 301 301 302 302 303 303 304 304 303 302 302 301 301 301 301 301 300 300 300 300 299 298 297 296 295 294 292 291 290 288 287 285 284 282 281 280 279 278 276 275 273 272 271 269 268 267 266 265 264 263 262 262 261 260 259 259 258 257 257 257 256 256 256 255 255 255 254 253 252
326 326 325 324 322 320 319 316 312 308 306 305 304 304 303 303 303 303 304 304 305 305 304 304 304 303 303 303 303 303 303 302 302 302 302 301 300 299 298 297 296 294 292 291 290 288 286 285 283 282 281 280 279 277 276 274 273 272 271 270 269 267 266 265 264 263 262 262 261 261 259 259 258 257 257 256 256 256 255 254 254 254 254 253 252
327 327 325 323 322 320 317 312 308 306 306 306 306 306 305 305 305 306 306 306 306 305 305 305 305 305 305 305 305 305 304 304 304 303 302 301 300 299 298 297 295 294 292 291 289 287 286 285 283 282 281 280 279 277 276 274 273 272 271 270 268 267 265 265 264 263 262 262 261 261 260 259 258 258 257 256 256 256 255 254 253 253 253 253 252
325 324 323 321 319 316 312 309 308 309 309 309 308 308 307 308 308 308 308 307 306 306 306 306 306 306 306 306 306 306 305 304 304 303 302 301 299 298 297 296 295 293 292 291 290 288 287 286 284 283 282 281 280 278 276 275 274 273 272 271 269 268 266 265 264 263 262 262 261 261 260 259 258 257 257 256 255 255 255 254 254 253 252 252 252
321 321 320 318 316 314 312 311 311 311 310 310 310 310 309 309 309 308 308 307 307 308 308 308 308 308 307 307 306 306 305 304 303 302 301 300 299 298 297 296 295 294 293 292 291 290 288 287 286 285 284 283 281 279 277 276 275 274 273 272 271 270 268 266 265 263 262 261 260 260 259 259 258 257 256 255 254 254 253 253 253 253 252 252 251
319 319 318 316 315 314 312 312 311 311 311 311 310 310 309 309 309 309 309 310 309 309 309 309 309 309 308 308 307 306 305 304 303 302 301 301 300 299 298 297 296 296 294 293 291 290 289 288 287 286 285 283 281 279 278 277 276 276 275 274 272 271 270 269 267 265 262 260 259 259 258 258 257 256 255 255 254 253 252 252 252 252 251 251 251
317 317 317 315 314 313 312 312 312 311 311 310 310 310 310 310 311 311 311 311 310 310 310 310 309 309 308 308 307 307 306 305 303 302 302 302 301 300 300 299 298 296 294 292 291 290 290 289 287 285 283 282 280 279 278 277 277 277 277 276 274 272 270 269 268 266 263 260 259 258 258 258 257 256 255 254 254 253 252 251 251 251 251 250 250
315 314 313 312 312 312 312 312 311 310 310 310 310 310 310 310 311 310 310 310 310 310 310 310 310 309 309 308 307 306 305 304 304 304 304 304 304 303 303 301 299 296 294 292 291 290 290 289 287 285 283 281 278 276 275 275 275 277 277 277 274 272 271 269 267 265 263 261 259 258 258 258 257 256 254 254 253 253 253 252 251 251 250 250 250
311 310 310 311 311 311 311 310 309 309 310 310 310 311 310 311 311 311 311 311 311 311 311 311 311 310 309 309 307 307 306 306 306 306 306 306 306 306 305 303 300 298 295 292 291 290 290 289 287 285 283 280 278 276 274 273 273 275 276 275 273 271 270 269 267 266 264 263 261 259 259 258 257 256 254 253 252 252 252 252 251 251 251 250 250
309 310 310 311 311 310 309 309 309 310 310 310 311 311 312 312 312 313 313 313 313 312 312 312 311 311 310 309 308 308 308 308 308 308 308 308 308 307 306 304 301 299 297 295 294 293 292 291 289 287 285 282 280 278 276 274 274 274 274 272 270 269 268 267 267 267 267 266 264 262 259 258 257 256 254 253 252 251 250 250 249 249 249 249 249
309 309 309 310 308 307 307 308 309 309 310 310 311 312 313 313 314 314 314 314 313 313 313 313 313 313 312 311 310 310 310 311 311 311 311 311 309 307 306 304 303 302 300 298 298 297 295 293 291 289 288 285 283 281 279 278 276 274 271 269 268 268 268 267 267 268 268 268 266 262 260 258 257 256 255 254 253 251 250 249 248 247 247 247 247
308 308 308 307 306 306 307 308 309 309 310 311 313 313 314 315 315 316 315 315 315 315 315 315 315 315 315 314 314 314 314 314 314 314 313 312 310 308 307 307 306 305 304 303 303 301 298 295 293 290 288 287 286 284 282 280 277 273 271 270 270 270 268 267 268 268 269 268 266 263 260 259 258 257 256 255 254 253 252 250 248 246 246 245 246
306 306 305 305 305 306 308 309 310 311 312 314 315 316 317 317 317 317 317 316 317 317 317 317 316 316 317 317 317 317 317 317 316 316 315 314 312 311 311 310 311 311 311 311 310 307 303 299 296 292 290 289 288 286 284 281 279 277 276 276 275 274 271 269 268 268 267 267 265 264 262 260 259 258 257 255 254 253 252 251 248 246 245 244 244
305 303 303 305 306 308 310 311 312 314 315 316 317 318 318 319 318 318 318 318 317 317 317 317 317 318 318 318 318 318 317 317 317 316 315 315 315 314 313 314 317 318 318 318 317 313 309 306 301 297 295 294 291 288 286 285 283 282 281 280 279 278 277 275 273 271 268 267 265 264 263 261 260 259 257 255 254 252 251 250 248 245 244 242 242
302 302 303 306 307 310 311 312 314 316 317 318 318 318 319 319 318 318 318 318 318 318 318 318 318 319 319 318 318 318 318 318 318 317 317 318 317 316 315 315 318 320 321 322 321 318 316 313 308 303 302 300 297 295 293 291 289 287 285 284 283 282 281 279 277 275 273 271 269 267 265 263 261 259 258 257 256 254 252 249 247 244 242 240 239
301 302 304 306 308 310 312 314 316 317 318 318 318 318 319 319 319 319 318 318 319 319 319 319 320 319 319 319 319 319 319 319 319 319 320 320 318 316 313 313 315 320 324 325 323 320 320 319 313 308 305 303 302 301 299 296 293 290 287 285 284 283 282 280 279 278 276 275 273 272 270 267 264 262 261 259 257 255 253 249 246 243 241 240 239
303 304 306 308 310 312 315 317 318 318 318 318 318 319 320 319 319 319 319 319 320 319 319 320 320 320 320 322 322 321 321 321 322 322 321 321 318 315 313 313 315 320 325 326 323 320 320 319 315 310 306 304 303 302 300 298 295 291 289 287 286 285 284 282 281 280 279 277 275 273 271 269 266 263 261 259 257 255 253 251 247 244 242 241 240
305 306 308 310 313 316 317 318 318 318 318 319 319 320 320 320 320 321 321 321 321 320 320 321 322 322 324 325 325 324 323 325 325 325 325 325 322 318 315 314 314 318 322 324 322 320 319 318 314 310 306 305 304 303 301 299 297 295 293 293 291 289 287 286 285 284 283 282 279 275 273 272 269 264 260 259 259 257 254 251 248 244 242 240 239
306 308 310 312 315 317 318 318 318 319 319 320 321 321 321 321 322 323 323 322 322 322 323 324 325 326 327 328 327 326 327 328 329 329 329 330 328 324 320 317 316 318 319 320 319 318 318 317 315 312 311 309 308 306 303 302 301 301 300 299 296 293 291 291 290 288 287 287 284 278 274 273 272 269 264 262 261 258 254 250 248 244 241 239 238
308 310 312 315 317 318 318 318 319 320 321 322 322 322 323 324 324 324 324 324 324 325 326 327 328 330 329 328 328 330 331 332 332 333 333 333 332 329 325 322 320 320 319 319 318 318 318 318 317 316 314 312 310 309 308 307 307 307 306 305 302 300 299 298 296 293 290 288 286 283 279 276 275 274 272 268 265 259 252 247 245 242 239 237 236
310 312 315 318 318 319 319 320 321 322 322 323 323 324 325 325 325 325 326 326 326 327 329 329 330 332 331 330 331 334 335 335 335 336 336 335 332 329 326 322 321 320 321 321 321 321 321 321 318 316 315 314 314 314 314 313 312 312 313 312 309 306 304 302 300 298 295 290 286 284 281 277 276 277 276 273 268 262 253 246 242 238 234 232 232
312 314 317 319 319 319 320 322 323 323 323 324 325 326 326 326 326 327 328 329 330 330 331 331 333 334 333 333 336 338 338 338 338 338 336 334 332 332 332 331 330 332 333 331 328 328 328 325 322 321 321 321 321 321 322 321 320 318 316 314 311 308 307 306 305 305 301 295 289 285 282 281 282 283 279 273 266 260 252 246 241 237 232 230 231
314 316 318 319 319 320 322 323 324 324 324 326 327 328 328 328 327 328 330 332 333 333 332 333 335 335 335 336 340 341 342 344 344 341 340 341 342 345 347 348 348 348 346 342 338 335 332 330 330 331 332 332 331 332 332 329 325 321 318 315 312 311 311 311 310 307 302 297 293 290 288 287 287 284 276 270 265 259 251 244 239 236 232 230 230
317 319 320 320 321 323 324 324 325 325 327 329 329 329 328 328 329 332 335 335 334 334 335 336 337 337 338 341 343 345 349 351 349 347 347 350 352 352 352 354 355 354 351 347 343 339 337 338 341 342 343 342 339 338 338 338 337 335 332 326 320 317 316 314 311 307 302 300 298 296 292 289 287 283 278 272 266 260 251 241 235 233 231 228 227
320 321 321 321 323 325 325 325 326 327 329 330 330 329 329 331 334 337 337 335 336 338 339 340 339 339 341 345 347 350 354 355 353 351 352 353 354 355 356 359 360 357 353 351 351 349 349 351 353 352 351 349 348 348 353 356 353 349 345 339 331 324 321 319 319 317 314 310 305 299 293 288 282 278 278 276 267 256 249 240 231 227 225 223 222
321 322 323 324 325 326 326 327 329 330 331 331 330 331 333 335 338 339 338 338 340 341 343 344 343 342 345 349 351 355 358 357 356 356 356 354 356 0 4 6 8 6 5 5 7 8 7 5 3 0 357 355 356 358 0 1 356 351 348 345 338 332 328 331 334 332 330 327 321 308 296 291 287 280 277 275 266 251 243 238 228 219 217 219 221
322 323 325 326 327 327 328 330 331 332 332 332 332 333 336 338 339 339 340 343 345 345 346 347 347 345 347 350 353 358 359 356 356 359 358 356 0 8 12 13 13 12 13 13 13 14 16 14 9 7 5 2 0 360 359 359 358 356 354 352 350 346 345 343 340 336 335 336 335 322 302 291 291 289 280 270 261 249 236 231 225 219 216 218 220
324 325 327 328 328 328 329 332 333 333 333 334 334 336 338 340 341 342 344 347 349 349 350 350 350 348 348 350 353 359 358 353 355 360 360 357 3 11 16 17 13 9 12 18 18 17 18 15 9 9 11 10 9 11 10 5 1 2 3 2 1 358 353 347 343 340 338 340 339 330 311 289 280 279 273 261 254 250 242 234 227 221 217 217 220
325 327 328 329 330 330 332 334 334 334 335 336 336 338 341 342 342 345 347 349 351 352 353 354 354 352 349 348 353 358 356 351 355 0 1 360 4 9 13 18 14 8 11 20 23 22 21 17 11 11 13 14 16 17 13 4 2 6 9 7 3 359 354 349 347 344 343 345 347 341 326 304 279 272 269 260 254 253 249 242 235 227 223 223 223
327 329 330 331 332 333 334 335 335 336 337 338 338 340 342 342 344 347 350 351 353 355 357 359 360 357 352 352 357 358 352 349 355 1 3 5 10 13 13 15 13 11 16 24 27 28 27 22 16 15 16 16 15 11 6 2 3 5 4 2 2 1 358 354 351 347 346 350 357 357 343 323 301 283 274 266 257 248 239 234 231 226 223 221 217
329 331 332 334 335 335 335 336 337 338 339 340 340 342 343 343 346 349 351 353 355 357 359 3 6 5 3 5 6 0 353 352 359 7 10 11 14 18 21 20 15 14 20 24 25 23 19 16 17 19 18 16 14 10 7 6 5 2 1 2 3 3 0 358 359 358 356 357 1 2 356 342 320 302 286 271 259 241 226 219 217 215 213 209 206
332 333 334 336 336 335 337 339 339 339 340 341 342 343 344 344 348 351 352 353 356 359 1 5 9 10 11 12 8 360 355 358 5 13 18 19 16 14 20 23 20 17 21 22 19 14 9 8 14 18 17 12 9 8 8 10 7 2 1 4 7 9 10 14 17 16 11 8 7 7 7 5 2 355 332 284 254 233 217 210 206 203 199 196 197
334 335 336 337 336 337 339 341 341 341 341 342 342 344 344 346 349 352 352 353 357 360 2 6 11 12 13 12 9 1 357 1 9 16 22 26 24 19 17 16 15 17 23 27 24 19 14 11 15 17 14 9 5 6 9 10 5 359 360 6 12 17 21 25 27 24 21 21 21 20 19 15 9 7 5 343 257 218 206 203 200 193 185 184 190
334 335 337 337 337 339 342 344 342 341 341 341 342 344 345 347 350 352 352 353 357 360 2 6 11 12 13 14 13 9 5 6 10 15 19 22 23 23 21 19 16 18 25 31 32 30 26 20 15 14 12 8 7 10 11 9 4 2 5 11 20 24 25 24 25 28 31 33 34 33 33 30 22 7 342 315 279 186 185 189 187 179 174 178 188
Height
5888 5889 5889 5889 5889 5889 5890 5890 5890 5890 5890 5890 5891 5891 5891 5891 5890 5890 5890 5890 5889 5889 5888 5888 5888 5887 5886 5886 5885 5885 5884 5883 5882 5882 5881 5880 5879 5878 5877 5876 5875 5875 5874 5873 5872 5871 5871 5871 5870 5869 5869 5868 5868 5868 5868 5867 5866 5866 5866 5866 5866 5866 5867 5867 5868 5868 5867 5867 5869 5869 5869 5870 5870 5869 5869 5869 5869 5869 5870 5871 5872 5872 5873 5874 5874
5888 5888 5888 5888 5888 5888 5888 5888 5888 5888 5888 5888 5888 5888 5888 5888 5888 5887 5887 5887 5886 5886 5885 5884 5884 5883 5883 5882 5881 5881 5880 5879 5878 5877 5876 5875 5874 5873 5873 5872 5871 5870 5870 5869 5868 5867 5867 5866 5866 5865 5864 5864 5863 5863 5863 5862 5862 5861 5861 5860 5860 5861 5861 5862 5863 5864 5863 5862 5863 5864 5865 5865 5866 5866 5866 5866 5866 5866 5867 5867 5868 5868 5868 5869 5870
5886 5887 5887 5887 5887 5887 5887 5887 5886 5886 5886 5886 5886 5885 5885 5885 5884 5884 5883 5883 5882 5882 5881 5880 5880 5879 5878 5878 5877 5876 5875 5874 5873 5872 5871 5871 5870 5869 5868 5867 5866 5866 5865 5864 5863 5863 5862 5862 5861 5860 5859 5859 5858 5858 5857 5857 5857 5856 5856 5856 5855 5855 5855 5856 5857 5858 5858 5857 5858 5859 5860 5861 5861 5862 5862 5863 5863 5863 5863 5864 5864 5864 5864 5865 5865
5885 5885 5885 5885 5885 5885 5884 5884 5884 5884 5883 5883 5882 5882 5882 5881 5881 5880 5880 5879 5878 5878 5877 5876 5875 5875 5874 5873 5872 5871 5870 5869 5868 5867 5866 5865 5865 5864 5863 5862 5861 5861 5860 5859 5858 5858 5857 5857 5856 5855 5854 5853 5853 5852 5852 5851 5851 5850 5850 5850 5850 5850 5850 5850 5851 5852 5852 5852 5853 5853 5854 5855 5857 5857 5858 5858 5859 5859 5859 5859 5860 5860 5860 5860 5861
5883 5883 5883 5883 5882 5882 5882 5881 5881 5881 5880 5880 5879 5879 5878 5878 5877 5877 5876 5875 5875 5874 5873 5872 5871 5870 5869 5868 5867 5866 5865 5864 5863 5862 5861 5860 5859 5858 5857 5857 5856 5855 5855 5854 5853 5852 5851 5851 5850 5849 5848 5848 5847 5846 5845 5845 5844 5844 5844 5844 5844 5844 5844 5844 5844 5846 5846 5847 5847 5847 5848 5849 5851 5852 5853 5853 5854 5854 5855 5855 5855 5855 5856 5856 5857
5881 5881 5881 5880 5880 5880 5879 5879 5879 5878 5878 5877 5876 5876 5875 5874 5874 5873 5872 5871 5870 5870 5869 5868 5867 5865 5864 5863 5862 5861 5860 5859 5858 5857 5856 5855 5854 5853 5853 5852 5851 5850 5849 5848 5848 5847 5846 5845 5844 5843 5842 5841 5841 5840 5839 5839 5838 5838 5838 5838 5838 5838 5838 5838 5838 5839 5840 5841 5841 5841 5842 5843 5845 5846 5847 5848 5848 5849 5850 5850 5850 5851 5851 5852 5852
5878 5878 5878 5878 5878 5877 5877 5876 5876 5875 5875 5874 5873 5872 5872 5871 5870 5869 5868 5867 5866 5865 5864 5863 5862 5861 5860 5859 5858 5856 5855 5854 5853 5852 5851 5850 5849 5848 5848 5847 5846 5845 5844 5842 5841 5840 5839 5839 5837 5836 5835 5835 5834 5833 5833 5832 5832 5832 5832 5831 5831 5832 5832 5832 5832 5832 5834 5835 5836 5835 5836 5837 5838 5839 5841 5842 5843 5844 5844 5845 5845 5846 5847 5847 5848
5875 5875 5875 5875 5874 5874 5874 5873 5873 5872 5871 5870 5869 5868 5868 5867 5866 5865 5864 5863 5862 5860 5859 5858 5857 5856 5855 5854 5853 5852 5851 5850 5848 5847 5846 5845 5845 5844 5843 5841 5840 5839 5838 5837 5835 5834 5833 5832 5831 5830 5829 5828 5828 5827 5827 5826 5826 5825 5825 5825 5825 5825 5826 5826 5826 5826 5827 5828 5829 5829 5829 5830 5832 5833 5834 5835 5837 5837 5838 5839 5840 5841 5842 5842 5842
5872 5872 5871 5871 5871 5871 5870 5870 5869 5868 5868 5867 5866 5865 5864 5863 5862 5861 5860 5858 5857 5856 5855 5854 5853 5852 5851 5850 5849 5848 5847 5845 5844 5843 5842 5840 5839 5838 5837 5836 5834 5833 5832 5831 5830 5828 5827 5826 5825 5825 5823 5823 5822 5821 5820 5820 5819 5819 5819 5818 5819 5819 5819 5820 5820 5820 5821 5822 5823 5823 5823 5824 5825 5826 5828 5829 5830 5831 5831 5833 5834 5835 5836 5837 5837
5869 5868 5868 5868 5868 5867 5867 5866 5865 5865 5864 5863 5862 5861 5860 5859 5858 5857 5855 5854 5853 5852 5851 5849 5849 5847 5846 5845 5844 5843 5842 5840 5839 5838 5836 5835 5833 5832 5831 5830 5829 5827 5826 5825 5824 5823 5822 5821 5820 5819 5818 5817 5816 5815 5814 5814 5813 5813 5813 5812 5812 5812 5813 5813 5813 5814 5814 5815 5817 5817 5817 5818 5819 5820 5821 5822 5823 5824 5825 5826 5828 5829 5830 5831 5831
5866 5866 5865 5865 5865 5864 5863 5863 5862 5861 5860 5859 5858 5857 5856 5855 5854 5852 5851 5850 5848 5847 5846 5845 5844 5843 5842 5841 5839 5838 5837 5835 5834 5832 5831 5829 5828 5826 5825 5824 5823 5821 5820 5819 5818 5817 5816 5815 5814 5813 5812 5811 5810 5809 5809 5808 5807 5807 5807 5806 5806 5806 5806 5807 5807 5807 5808 5809 5810 5810 5811 5812 5813 5813 5814 5816 5816 5818 5819 5820 5821 5823 5823 5824 5825
5864 5863 5862 5862 5861 5860 5860 5859 5858 5857 5856 5855 5854 5853 5852 5851 5849 5848 5846 5845 5844 5843 5842 5841 5840 5838 5837 5836 5834 5833 5831 5829 5828 5826 5825 5823 5822 5820 5819 5818 5817 5815 5814 5812 5812 5811 5810 5809 5807 5806 5806 5805 5804 5803 5802 5802 5801 5801 5800 5800 5800 5800 5800 5800 5800 5800 5801 5802 5803 5804 5805 5805 5806 5807 5808 5808 5809 5811 5813 5814 5815 5816 5816 5817 5818
5861 5860 5859 5858 5858 5857 5856 5855 5854 5853 5852 5851 5850 5849 5848 5846 5845 5844 5842 5841 5840 5839 5837 5836 5835 5833 5832 5830 5829 5827 5826 5824 5822 5821 5819 5818 5816 5814 5813 5812 5811 5809 5807 5806 5805 5804 5803 5802 5801 5800 5799 5798 5797 5796 5795 5795 5794 5794 5794 5793 5793 5793 5793 5793 5794 5794 5794 5795 5796 5798 5798 5798 5800 5800 5801 5801 5802 5804 5806 5808 5809 5810 5810 5811 5813
5857 5856 5856 5855 5854 5853 5853 5851 5850 5849 5848 5847 5846 5845 5843 5842 5841 5839 5838 5837 5835 5834 5833 5831 5830 5828 5827 5825 5824 5822 5820 5818 5816 5814 5813 5811 5809 5808 5806 5805 5804 5803 5801 5799 5798 5796 5796 5795 5794 5793 5791 5790 5789 5788 5788 5787 5787 5787 5787 5787 5787 5786 5786 5786 5786 5787 5787 5788 5789 5791 5791 5791 5793 5794 5794 5794 5796 5797 5799 5801 5802 5803 5804 5804 5806
5854 5853 5853 5852 5850 5850 5849 5848 5847 5845 5844 5843 5842 5840 5839 5838 5837 5835 5834 5832 5831 5829 5828 5827 5825 5823 5821 5820 5818 5816 5814 5811 5809 5808 5806 5805 5803 5801 5799 5798 5797 5796 5794 5792 5790 5789 5788 5787 5786 5785 5784 5783 5781 5780 5780 5780 5780 5780 5780 5779 5779 5779 5779 5779 5779 5779 5780 5781 5782 5783 5784 5785 5786 5787 5788 5788 5789 5790 5792 5793 5795 5796 5797 5798 5800
5851 5850 5849 5848 5847 5846 5845 5844 5843 5841 5840 5839 5838 5836 5835 5834 5832 5831 5830 5828 5826 5825 5823 5822 5820 5818 5816 5814 5812 5810 5807 5805 5803 5802 5800 5798 5796 5794 5792 5791 5790 5789 5787 5785 5783 5782 5780 5779 5778 5777 5776 5775 5773 5772 5772 5772 5772 5772 5771 5771 5771 5771 5771 5771 5771 5771 5772 5773 5774 5775 5777 5778 5778 5780 5781 5781 5782 5783 5784 5786 5788 5789 5790 5792 5794
5847 5846 5845 5843 5842 5842 5841 5840 5839 5837 5836 5835 5834 5832 5831 5830 5828 5827 5825 5823 5822 5820 5818 5816 5814 5812 5810 5807 5805 5803 5801 5799 5797 5795 5794 5792 5789 5787 5785 5784 5782 5781 5779 5777 5775 5774 5772 5770 5769 5768 5767 5766 5765 5765 5764 5764 5764 5763 5763 5762 5763 5763 5763 5763 5763 5763 5764 5765 5766 5768 5769 5771 5771 5772 5773 5774 5775 5775 5777 5779 5781 5781 5783 5785 5787
5842 5841 5840 5839 5838 5837 5836 5835 5835 5834 5832 5831 5830 5828 5827 5825 5824 5822 5821 5819 5817 5815 5813 5811 5808 5806 5803 5801 5799 5797 5795 5792 5790 5788 5787 5784 5782 5779 5777 5776 5775 5773 5771 5769 5768 5766 5764 5762 5760 5759 5759 5758 5757 5757 5756 5756 5755 5754 5754 5754 5754 5755 5755 5754 5755 5755 5756 5757 5758 5760 5762 5763 5764 5765 5766 5767 5768 5768 5770 5772 5773 5773 5775 5778 5781
5838 5837 5836 5835 5834 5833 5832 5832 5831 5830 5829 5827 5826 5824 5823 5821 5819 5818 5816 5814 5812 5810 5808 5805 5803 5800 5798 5795 5793 5791 5788 5786 5783 5782 5780 5777 5775 5772 5770 5768 5766 5765 5763 5762 5760 5758 5756 5754 5752 5751 5751 5750 5749 5748 5748 5747 5746 5746 5745 5745 5746 5746 5746 5746 5746 5747 5748 5749 5751 5752 5754 5755 5756 5757 5758 5760 5760 5761 5763 5765 5765 5766 5768 5771 5773
5834 5833 5832 5831 5830 5829 5829 5829 5828 5827 5825 5823 5822 5820 5818 5817 5815 5813 5811 5809 5807 5805 5802 5800 5798 5795 5792 5790 5787 5784 5782 5780 5777 5775 5773 5771 5768 5765 5763 5760 5758 5756 5755 5753 5751 5750 5748 5746 5744 5743 5742 5741 5741 5740 5739 5738 5738 5738 5737 5737 5737 5737 5737 5738 5738 5739 5740 5742 5743 5744 5745 5747 5748 5749 5751 5752 5753 5754 5755 5756 5758 5759 5761 5764 5766
5831 5830 5829 5828 5827 5827 5826 5825 5824 5822 5821 5819 5817 5816 5814 5812 5811 5809 5807 5804 5802 5800 5797 5795 5793 5790 5787 5784 5781 5779 5776 5774 5771 5769 5766 5764 5762 5759 5756 5753 5750 5748 5746 5745 5743 5741 5739 5737 5735 5734 5734 5733 5732 5731 5731 5730 5730 5730 5730 5729 5729 5728 5729 5729 5730 5730 5732 5733 5735 5736 5737 5739 5740 5742 5743 5744 5745 5746 5747 5748 5750 5752 5753 5756 5758
5828 5827 5826 5826 5825 5824 5823 5821 5820 5818 5817 5815 5813 5812 5810 5808 5806 5804 5802 5800 5797 5795 5792 5790 5787 5784 5781 5778 5776 5773 5771 5768 5765 5762 5760 5758 5755 5753 5750 5747 5743 5741 5739 5737 5735 5733 5731 5730 5728 5726 5726 5725 5724 5723 5723 5722 5722 5722 5721 5721 5721 5720 5720 5721 5722 5723 5724 5725 5726 5728 5729 5730 5732 5733 5734 5736 5737 5738 5739 5741 5742 5744 5746 5749 5751
5825 5824 5824 5823 5822 5820 5819 5817 5816 5814 5813 5811 5810 5808 5806 5804 5802 5800 5797 5795 5792 5790 5787 5785 5782 5779 5776 5773 5770 5767 5764 5762 5759 5756 5753 5751 5749 5746 5743 5740 5737 5734 5731 5729 5727 5725 5724 5722 5721 5719 5718 5717 5717 5716 5715 5715 5714 5714 5714 5713 5713 5713 5713 5714 5714 5715 5716 5717 5718 5720 5721 5722 5723 5725 5726 5727 5728 5729 5731 5733 5734 5736 5738 5741 5743
5823 5822 5820 5819 5818 5817 5815 5814 5812 5811 5810 5808 5806 5804 5802 5800 5797 5795 5793 5790 5788 5785 5783 5780 5778 5775 5772 5769 5765 5762 5758 5755 5752 5749 5747 5745 5742 5739 5736 5733 5730 5727 5724 5722 5720 5718 5716 5715 5713 5712 5711 5710 5709 5709 5708 5708 5707 5707 5707 5706 5705 5705 5706 5706 5707 5707 5708 5709 5710 5712 5713 5714 5715 5717 5718 5719 5720 5721 5722 5724 5726 5728 5730 5733 5735
5821 5820 5818 5817 5816 5814 5812 5811 5809 5808 5806 5805 5803 5801 5798 5796 5794 5791 5789 5786 5784 5781 5778 5776 5773 5770 5767 5764 5761 5757 5753 5750 5746 5743 5740 5737 5734 5731 5728 5725 5722 5720 5717 5715 5713 5711 5709 5707 5706 5705 5704 5703 5702 5702 5701 5701 5700 5700 5700 5699 5698 5698 5698 5698 5699 5699 5700 5702 5703 5705 5706 5707 5707 5709 5710 5711 5712 5714 5715 5716 5718 5720 5723 5725 5728
5819 5818 5816 5815 5813 5812 5810 5808 5806 5805 5803 5801 5799 5797 5795 5792 5790 5787 5785 5782 5779 5776 5774 5771 5768 5765 5762 5759 5756 5752 5748 5744 5741 5737 5734 5731 5727 5724 5721 5717 5714 5712 5710 5708 5706 5704 5702 5700 5698 5697 5696 5695 5694 5694 5694 5694 5694 5693 5693 5692 5692 5692 5691 5691 5692 5692 5693 5695 5697 5699 5700 5700 5700 5702 5703 5704 5706 5707 5708 5709 5711 5713 5716 5718 5720
5817 5815 5814 5812 5811 5809 5807 5805 5803 5801 5799 5797 5795 5793 5790 5788 5785 5783 5780 5777 5774 5771 5769 5766 5763 5760 5757 5754 5751 5747 5744 5740 5736 5732 5728 5725 5721 5717 5713 5710 5707 5704 5702 5701 5699 5698 5696 5694 5691 5689 5688 5687 5686 5686 5686 5687 5687 5687 5686 5686 5685 5686 5685 5685 5686 5686 5688 5689 5691 5692 5692 5693 5694 5695 5696 5697 5699 5700 5700 5702 5704 5706 5708 5710 5713
5814 5812 5811 5810 5808 5806 5805 5803 5801 5798 5796 5794 5791 5789 5787 5784 5781 5778 5776 5773 5770 5767 5764 5761 5758 5755 5752 5748 5745 5742 5739 5735 5731 5726 5722 5718 5714 5710 5707 5704 5701 5698 5696 5694 5693 5692 5690 5687 5685 5683 5682 5681 5680 5679 5679 5679 5680 5680 5680 5679 5679 5680 5680 5680 5680 5681 5682 5683 5684 5685 5686 5686 5687 5688 5689 5690 5692 5693 5694 5695 5697 5699 5701 5703 5706
5811 5810 5808 5807 5805 5803 5802 5800 5798 5795 5793 5790 5788 5785 5783 5780 5777 5774 5771 5768 5765 5762 5759 5756 5752 5749 5746 5742 5738 5735 5732 5729 5725 5720 5716 5712 5708 5704 5701 5698 5696 5694 5691 5689 5688 5686 5684 5681 5680 5678 5676 5675 5675 5674 5673 5673 5674 5674 5674 5674 5674 5675 5675 5675 5675 5676 5677 5677 5678 5679 5679 5680 5681 5682 5683 5684 5685 5686 5687 5689 5691 5692 5694 5696 5700
5808 5807 5805 5804 5802 5800 5798 5796 5794 5792 5789 5787 5784 5781 5778 5776 5773 5770 5767 5764 5761 5758 5754 5751 5748 5744 5741 5737 5733 5729 5725 5722 5718 5714 5710 5706 5703 5699 5696 5693 5691 5689 5687 5685 5683 5680 5678 5676 5674 5672 5671 5670 5670 5669 5669 5669 5669 5669 5669 5669 5669 5669 5669 5670 5670 5671 5671 5671 5671 5672 5672 5673 5674 5675 5676 5677 5678 5679 5680 5681 5683 5685 5687 5690 5693
5805 5804 5802 5800 5798 5796 5794 5792 5790 5788 5786 5783 5780 5778 5775 5772 5769 5767 5764 5761 5757 5754 5751 5747 5744 5740 5737 5733 5730 5725 5720 5716 5712 5708 5705 5701 5698 5695 5692 5689 5686 5684 5682 5680 5678 5675 5672 5671 5669 5667 5667 5666 5666 5665 5665 5664 5664 5664 5664 5664 5664 5664 5664 5664 5664 5665 5665 5665 5665 5665 5666 5667 5668 5668 5669 5669 5670 5671 5672 5674 5676 5678 5680 5683 5686
5803 5801 5799 5797 5795 5793 5791 5789 5787 5785 5782 5780 5777 5775 5772 5769 5766 5763 5760 5757 5754 5751 5747 5744 5740 5737 5733 5730 5726 5722 5717 5712 5707 5704 5700 5697 5694 5692 5689 5686 5683 5681 5678 5676 5674 5671 5668 5667 5665 5664 5664 5663 5663 5662 5661 5661 5661 5661 5660 5660 5659 5659 5659 5659 5659 5659 5660 5659 5659 5660 5660 5661 5662 5662 5662 5663 5664 5664 5665 5667 5668 5671 5673 5676 5679
5800 5798 5796 5794 5792 5790 5788 5786 5784 5781 5779 5777 5774 5772 5770 5767 5764 5761 5757 5754 5750 5747 5744 5740 5737 5734 5730 5726 5722 5717 5712 5708 5704 5700 5697 5694 5691 5688 5686 5683 5681 5678 5676 5673 5670 5668 5666 5664 5663 5662 5662 5661 5660 5659 5659 5658 5658 5657 5657 5656 5656 5655 5655 5655 5655 5655 5655 5655 5654 5655 5655 5655 5655 5656 5656 5657 5657 5658 5660 5661 5663 5665 5667 5670 5673
5796 5795 5793 5791 5789 5787 5785 5783 5781 5778 5776 5774 5771 5769 5766 5764 5761 5758 5755 5751 5748 5744 5741 5738 5734 5730 5727 5723 5718 5712 5708 5704 5701 5697 5694 5691 5688 5685 5683 5681 5678 5675 5673 5670 5668 5665 5664 5662 5661 5660 5659 5658 5658 5657 5656 5655 5655 5654 5654 5653 5652 5652 5652 5651 5651 5651 5651 5650 5650 5649 5649 5649 5649 5650 5650 5650 5651 5652 5654 5655 5657 5659 5661 5664 5667
5793 5792 5790 5788 5786 5784 5782 5780 5778 5776 5773 5771 5769 5766 5763 5760 5757 5754 5751 5748 5745 5742 5738 5735 5731 5727 5723 5719 5714 5709 5705 5701 5698 5694 5690 5687 5684 5682 5680 5678 5675 5672 5669 5667 5665 5664 5662 5660 5659 5658 5657 5656 5655 5655 5654 5653 5652 5651 5651 5650 5649 5649 5648 5647 5647 5647 5646 5646 5646 5645 5645 5645 5644 5645 5645 5645 5645 5647 5649 5649 5650 5652 5655 5657 5661
5790 5789 5788 5786 5784 5782 5780 5777 5775 5773 5771 5768 5766 5763 5760 5757 5754 5751 5748 5745 5742 5739 5735 5732 5728 5723 5719 5714 5711 5707 5703 5699 5695 5691 5687 5683 5681 5678 5676 5674 5672 5669 5666 5665 5663 5662 5660 5659 5657 5656 5655 5654 5653 5652 5652 5651 5650 5649 5649 5648 5647 5646 5645 5644 5644 5643 5643 5642 5642 5641 5641 5641 5640 5640 5640 5640 5641 5642 5643 5644 5645 5647 5649 5652 5655
5788 5786 5785 5783 5781 5779 5777 5775 5773 5771 5768 5765 5763 5760 5757 5754 5751 5748 5745 5742 5739 5735 5732 5728 5725 5721 5716 5711 5708 5704 5700 5695 5691 5687 5684 5681 5678 5675 5673 5670 5668 5666 5663 5662 5661 5660 5658 5657 5656 5654 5654 5653 5651 5651 5650 5649 5648 5648 5647 5646 5645 5643 5642 5641 5641 5640 5639 5639 5638 5638 5637 5637 5636 5635 5635 5635 5636 5636 5637 5638 5640 5642 5644 5647 5650
5785 5784 5782 5781 5779 5777 5775 5773 5770 5768 5765 5763 5760 5757 5754 5752 5749 5746 5743 5740 5736 5732 5729 5725 5722 5718 5714 5709 5706 5702 5698 5693 5690 5686 5682 5679 5675 5672 5669 5666 5664 5662 5661 5660 5659 5658 5657 5656 5654 5653 5652 5651 5650 5649 5648 5648 5647 5646 5645 5644 5643 5642 5640 5639 5639 5638 5637 5636 5635 5635 5634 5633 5632 5631 5631 5631 5631 5632 5633 5634 5636 5638 5640 5642 5645
5783 5782 5780 5778 5776 5774 5772 5770 5768 5765 5763 5760 5758 5755 5752 5749 5746 5743 5740 5737 5734 5730 5726 5723 5719 5714 5711 5707 5704 5700 5696 5693 5689 5686 5682 5678 5674 5670 5666 5663 5661 5660 5659 5658 5657 5657 5655 5654 5653 5652 5651 5650 5649 5648 5647 5646 5645 5644 5643 5642 5641 5640 5639 5638 5637 5636 5635 5634 5633 5632 5631 5630 5629 5628 5628 5628 5628 5628 5629 5630 5632 5634 5636 5638 5641
5781 5780 5778 5776 5774 5772 5770 5768 5765 5763 5760 5758 5755 5752 5749 5747 5744 5741 5738 5735 5732 5728 5724 5720 5716 5712 5708 5705 5702 5698 5695 5691 5688 5685 5681 5676 5672 5668 5665 5662 5660 5659 5659 5658 5657 5656 5655 5654 5653 5652 5651 5649 5648 5647 5646 5645 5644 5643 5642 5640 5639 5638 5637 5635 5634 5633 5632 5631 5630 5629 5628 5627 5626 5626 5625 5625 5625 5625 5626 5627 5628 5630 5632 5634 5637
5779 5778 5776 5774 5772 5770 5768 5765 5763 5760 5758 5755 5753 5750 5747 5745 5742 5739 5736 5733 5730 5726 5722 5718 5713 5709 5706 5703 5699 5696 5693 5690 5686 5683 5678 5674 5671 5668 5666 5663 5661 5660 5659 5658 5657 5656 5654 5653 5652 5651 5650 5649 5648 5647 5645 5644 5643 5642 5641 5639 5638 5637 5636 5634 5632 5631 5630 5629 5628 5627 5626 5625 5624 5624 5623 5623 5623 5623 5624 5625 5625 5627 5629 5631 5633
5777 5775 5774 5772 5770 5768 5766 5763 5761 5758 5756 5753 5750 5748 5745 5743 5740 5738 5735 5732 5728 5725 5720 5716 5711 5707 5705 5701 5698 5695 5692 5689 5685 5682 5678 5674 5671 5668 5666 5664 5662 5660 5659 5658 5657 5655 5654 5654 5653 5651 5650 5649 5648 5647 5645 5644 5643 5642 5640 5639 5638 5636 5635 5633 5632 5630 5628 5627 5626 5625 5624 5623 5623 5622 5622 5621 5621 5622 5622 5623 5623 5625 5627 5629 5631
5775 5773 5772 5770 5768 5766 5763 5761 5759 5756 5754 5751 5749 5746 5744 5741 5739 5737 5734 5730 5727 5723 5719 5714 5710 5706 5704 5701 5698 5695 5692 5689 5686 5682 5678 5675 5672 5669 5667 5665 5663 5661 5660 5658 5657 5656 5655 5654 5653 5652 5650 5649 5648 5647 5646 5645 5643 5642 5640 5639 5637 5635 5634 5632 5631 5629 5627 5625 5623 5622 5621 5620 5620 5620 5620 5620 5620 5620 5620 5621 5622 5624 5626 5628 5631
5773 5772 5770 5768 5766 5764 5761 5759 5757 5754 5752 5749 5747 5745 5742 5740 5738 5736 5733 5729 5725 5721 5717 5713 5709 5706 5703 5701 5698 5695 5692 5689 5686 5682 5679 5676 5673 5671 5668 5666 5664 5663 5661 5660 5658 5657 5656 5655 5653 5652 5651 5649 5649 5648 5646 5645 5644 5642 5640 5639 5637 5635 5633 5632 5630 5628 5626 5624 5622 5620 5618 5618 5617 5617 5618 5618 5619 5619 5619 5620 5622 5624 5625 5627 5630
5771 5770 5768 5766 5764 5762 5760 5757 5755 5753 5750 5748 5745 5743 5741 5739 5737 5734 5732 5728 5725 5721 5716 5712 5708 5705 5703 5700 5697 5695 5693 5690 5686 5683 5679 5676 5675 5672 5670 5668 5666 5664 5663 5661 5660 5658 5657 5656 5654 5653 5652 5650 5649 5648 5647 5645 5644 5642 5641 5639 5637 5635 5633 5632 5630 5627 5625 5623 5620 5618 5616 5616 5615 5615 5615 5616 5617 5617 5618 5619 5621 5622 5624 5626 5629
5770 5768 5766 5764 5762 5760 5758 5756 5753 5751 5749 5747 5744 5742 5740 5738 5736 5734 5731 5728 5725 5721 5716 5712 5708 5705 5703 5700 5697 5695 5693 5690 5687 5684 5680 5677 5675 5674 5671 5670 5668 5666 5664 5662 5661 5659 5658 5656 5655 5654 5653 5652 5650 5649 5648 5646 5645 5643 5641 5639 5637 5635 5633 5631 5629 5627 5624 5621 5619 5617 5615 5614 5614 5613 5614 5614 5615 5615 5616 5617 5619 5620 5622 5625 5627
5768 5767 5765 5763 5761 5758 5756 5754 5752 5750 5748 5745 5743 5741 5739 5737 5735 5733 5730 5728 5724 5721 5717 5712 5708 5705 5703 5700 5698 5696 5693 5690 5687 5684 5681 5678 5676 5674 5673 5671 5669 5667 5666 5664 5662 5660 5659 5658 5657 5655 5654 5653 5651 5650 5649 5647 5646 5644 5642 5640 5637 5635 5633 5631 5629 5626 5623 5620 5618 5615 5614 5612 5612 5612 5612 5612 5613 5613 5614 5615 5617 5619 5621 5623 5626
5767 5765 5763 5761 5759 5757 5755 5753 5751 5749 5747 5744 5742 5741 5739 5737 5735 5732 5730 5727 5724 5721 5717 5713 5709 5706 5703 5700 5698 5696 5694 5691 5688 5685 5682 5679 5677 5676 5674 5672 5670 5669 5667 5666 5664 5662 5661 5659 5658 5656 5655 5654 5653 5651 5650 5649 5647 5645 5643 5640 5638 5635 5633 5630 5628 5626 5623 5620 5618 5615 5613 5611 5611 5611 5611 5611 5612 5612 5613 5614 5616 5618 5620 5623 5626
5765 5763 5761 5760 5758 5756 5754 5752 5750 5747 5745 5744 5742 5740 5738 5736 5734 5732 5730 5727 5724 5721 5718 5714 5710 5707 5704 5701 5699 5697 5694 5691 5689 5686 5683 5680 5679 5677 5676 5674 5671 5670 5669 5667 5666 5664 5663 5661 5659 5658 5657 5656 5655 5653 5651 5649 5647 5645 5643 5641 5639 5636 5633 5631 5629 5627 5624 5622 5619 5616 5613 5611 5611 5610 5610 5610 5611 5611 5612 5613 5615 5617 5619 5622 5625
5764 5762 5760 5759 5757 5755 5753 5751 5749 5746 5745 5743 5741 5739 5737 5736 5734 5732 5730 5727 5724 5722 5718 5715 5711 5708 5705 5702 5699 5697 5695 5692 5690 5687 5684 5682 5680 5678 5676 5675 5673 5671 5669 5668 5667 5665 5664 5662 5660 5659 5658 5657 5656 5654 5652 5650 5648 5646 5645 5643 5640 5637 5635 5632 5630 5628 5626 5624 5621 5618 5615 5613 5612 5611 5611 5610 5610 5611 5611 5613 5614 5617 5619 5621 5623
5762 5761 5759 5758 5756 5754 5752 5750 5748 5746 5744 5742 5740 5739 5737 5735 5733 5731 5729 5727 5725 5722 5719 5716 5712 5709 5707 5704 5701 5698 5695 5692 5690 5687 5685 5683 5682 5680 5678 5676 5674 5672 5670 5669 5667 5666 5664 5663 5661 5660 5659 5658 5657 5655 5652 5650 5649 5647 5646 5644 5642 5640 5637 5635 5632 5630 5629 5627 5624 5621 5618 5615 5613 5612 5611 5611 5610 5611 5611 5613 5614 5616 5618 5621 5622